Le nostre stazioni meteo in Italia

Pubblicità
Il mio iltempo24.it
Chiavari, Italia (16123): Temperatura & dewpoint: 17.07.2019 06:00:00 - 23.07.2019 06:00:00 (CEST)Chiavari, Italia (16123): velocità del vento: 17.07.2019 06:00:00 - 23.07.2019 06:00:00 (CEST)Chiavari, Italia (16123): direzione del vento: 17.07.2019 06:00:00 - 23.07.2019 06:00:00 (CEST)Chiavari, Italia (16123): reduced air pressure: 17.07.2019 06:00:00 - 23.07.2019 06:00:00 (CEST)Chiavari, Italia (16123): precipitazioni: 17.07.2019 06:00:00 - 23.07.2019 06:00:00 (CEST)
Data & Tempo tt [°C] td [°C] ff [km/h] ff [kn] dd ppp [hPa] rr [mm]
23.07.2019 06:00:00 - - - - - - -
23.07.2019 05:00:00 22,9 19,4 8 4 E 1018,3 -
23.07.2019 04:00:00 23,1 19,2 8 4 ENE 1018,6 -
23.07.2019 03:00:00 23,3 19,2 9 5 NNE 1018,8 -
23.07.2019 02:00:00 23,6 19,1 11 6 NE 1019,1 -
23.07.2019 01:00:00 23,9 19,6 15 8 NE 1019,2 -
23.07.2019 00:00:00 24,3 19,9 9 5 NE 1019,4 -
22.07.2019 23:00:00 24,8 20,6 11 6 NE 1019,4 -
22.07.2019 22:00:00 26,2 21,6 4 2 NNE 1019,2 -
22.07.2019 21:00:00 27,0 22,8 2 1 S 1019,1 -
22.07.2019 20:00:00 27,5 22,8 5 3 SSO 1019,1 -
22.07.2019 19:00:00 27,4 21,4 8 4 S 1019,0 -
22.07.2019 18:00:00 27,6 19,6 9 5 S 1019,4 -
22.07.2019 17:00:00 27,7 18,4 11 6 S 1019,9 -
22.07.2019 16:00:00 27,9 17,1 11 6 SSO 1020,3 -
22.07.2019 15:00:00 28,4 17,2 11 6 S 1020,6 -
22.07.2019 14:00:00 28,9 16,7 11 6 SSO 1021,0 -
22.07.2019 13:00:00 28,6 15,5 9 5 SSO 1021,2 -
22.07.2019 12:00:00 27,5 15,5 9 5 S 1021,4 -
22.07.2019 11:00:00 27,5 17,3 8 4 OSO 1021,4 -
22.07.2019 10:00:00 24,6 15,2 9 5 NE 1021,3 -
22.07.2019 09:00:00 22,1 15,6 9 5 NNE 1021,5 -
22.07.2019 08:00:00 19,8 15,8 13 7 NE 1021,3 -
22.07.2019 07:00:00 19,1 15,7 15 8 NE 1021,3 -
22.07.2019 06:00:00 19,2 15,8 15 8 NE 1020,9 -
22.07.2019 05:00:00 19,5 16,3 15 8 NE 1021,0 -
22.07.2019 04:00:00 19,8 16,8 13 7 NE 1021,0 -
22.07.2019 03:00:00 20,5 17,1 13 7 NE 1021,1 -
22.07.2019 02:00:00 21,4 18,1 15 8 NE 1021,1 -
22.07.2019 01:00:00 21,9 18,6 11 6 NNE 1021,5 -
22.07.2019 00:00:00 22,8 19,5 11 6 NNE 1021,4 -
21.07.2019 23:00:00 23,8 20,3 9 5 NNE 1021,0 -
21.07.2019 22:00:00 25,2 21,4 4 2 NNE 1020,5 -
21.07.2019 21:00:00 25,9 21,7 4 2 S 1020,1 -
21.07.2019 20:00:00 26,5 21,6 5 3 SO 1019,6 -
21.07.2019 19:00:00 26,6 21,3 8 4 SO 1019,5 -
21.07.2019 18:00:00 27,0 21,9 11 6 SO 1019,6 -
21.07.2019 17:00:00 27,3 22,2 9 5 SO 1019,9 -
21.07.2019 16:00:00 26,9 21,4 15 8 SSO 1020,0 -
21.07.2019 15:00:00 27,3 22,2 15 8 SSO 1020,3 -
21.07.2019 14:00:00 27,1 18,3 13 7 SSO 1020,4 -
21.07.2019 13:00:00 27,2 19,7 11 6 S 1020,5 -
21.07.2019 12:00:00 26,1 21,0 11 6 S 1020,5 -
21.07.2019 11:00:00 26,3 21,5 9 5 SO 1020,5 -
21.07.2019 10:00:00 24,4 14,1 5 3 N 1020,4 -
21.07.2019 09:00:00 21,1 13,4 13 7 NE 1020,5 -
21.07.2019 08:00:00 18,8 14,2 15 8 NE 1020,5 -
21.07.2019 07:00:00 17,8 13,8 15 8 NE 1020,2 -
21.07.2019 06:00:00 18,0 14,0 15 8 NE 1020,1 -
21.07.2019 05:00:00 18,4 14,2 13 7 NNE 1019,7 -
21.07.2019 04:00:00 18,9 14,5 15 8 NNE 1019,8 -
21.07.2019 03:00:00 19,5 14,9 11 6 NE 1019,7 -
21.07.2019 02:00:00 20,1 15,0 13 7 ENE 1019,6 -
21.07.2019 01:00:00 20,8 15,5 13 7 NNE 1019,6 -
21.07.2019 00:00:00 21,4 15,4 13 7 NE 1019,4 -
20.07.2019 23:00:00 22,4 16,4 11 6 ENE 1019,1 -
20.07.2019 22:00:00 24,2 17,1 8 4 N 1018,7 -
20.07.2019 21:00:00 26,5 18,8 2 1 N 1018,0 -
20.07.2019 20:00:00 26,5 18,3 4 2 SO 1017,9 0,0
20.07.2019 19:00:00 27,1 19,1 9 5 OSO 1018,1 -
20.07.2019 18:00:00 27,8 16,7 9 5 SO 1017,8 -
20.07.2019 17:00:00 27,9 15,8 8 4 OSO 1018,5 -
20.07.2019 16:00:00 27,6 14,5 11 6 SSO 1018,7 -
20.07.2019 15:00:00 28,0 16,2 11 6 SO 1018,6 -
20.07.2019 14:00:00 27,8 17,0 11 6 SO 1018,7 -
20.07.2019 13:00:00 27,4 15,0 9 5 SSO 1018,9 -
20.07.2019 12:00:00 27,1 14,8 9 5 S 1018,7 -
20.07.2019 11:00:00 26,5 15,5 8 4 O 1018,5 -
20.07.2019 10:00:00 24,2 14,5 2 1 E 1018,2 -
20.07.2019 09:00:00 21,3 16,6 9 5 E 1018,2 -
20.07.2019 08:00:00 19,0 15,6 11 6 E 1017,7 -
20.07.2019 07:00:00 18,0 15,6 15 8 NE 1017,5 -
20.07.2019 06:00:00 18,1 15,7 13 7 NE 1017,4 -
20.07.2019 05:00:00 18,4 15,9 11 6 ENE 1016,9 -
20.07.2019 04:00:00 19,1 16,4 13 7 NE 1016,8 -
20.07.2019 03:00:00 19,8 17,3 13 7 NE 1016,8 -
20.07.2019 02:00:00 20,5 18,2 13 7 NNE 1016,9 -
20.07.2019 01:00:00 21,1 18,6 9 5 NNE 1016,9 -
20.07.2019 00:00:00 21,9 19,0 9 5 NNE 1016,8 -
19.07.2019 23:00:00 22,9 19,4 5 3 NNE 1016,5 -
19.07.2019 22:00:00 24,4 19,8 4 2 NNE 1015,7 -
19.07.2019 21:00:00 25,3 19,8 4 2 S 1015,3 -
19.07.2019 20:00:00 25,9 19,5 8 4 SO 1015,1 -
19.07.2019 19:00:00 26,6 17,3 9 5 SSO 1015,2 -
19.07.2019 18:00:00 27,2 15,8 8 4 OSO 1015,4 -
19.07.2019 17:00:00 26,8 17,2 9 5 S 1015,8 -
19.07.2019 16:00:00 26,9 17,9 11 6 SO 1015,7 -
19.07.2019 15:00:00 26,9 18,9 11 6 SSE 1016,0 -
19.07.2019 14:00:00 26,7 16,8 9 5 S 1016,0 -
19.07.2019 13:00:00 26,7 16,0 11 6 SO 1016,0 -
19.07.2019 12:00:00 26,7 16,0 9 5 S 1015,9 -
19.07.2019 11:00:00 25,7 14,7 8 4 SSO 1015,8 -
19.07.2019 10:00:00 24,3 16,7 0 0 N 1015,6 -
19.07.2019 09:00:00 21,3 17,0 9 5 NNE 1015,4 -
19.07.2019 08:00:00 19,0 16,0 11 6 NE 1015,2 -
19.07.2019 07:00:00 18,0 15,7 15 8 NE 1014,8 -
19.07.2019 06:00:00 18,1 16,0 11 6 NE 1014,7 -
19.07.2019 05:00:00 18,5 16,2 11 6 NNE 1014,5 -
19.07.2019 04:00:00 19,1 16,4 9 5 NE 1014,4 -
19.07.2019 03:00:00 19,6 16,9 9 5 ENE 1014,2 -
19.07.2019 02:00:00 20,2 17,3 13 7 NE 1014,1 -
19.07.2019 01:00:00 21,1 18,4 11 6 NNE 1013,8 -
19.07.2019 00:00:00 21,7 18,8 11 6 NNE 1013,7 -
18.07.2019 23:00:00 22,6 18,9 5 3 ENE 1013,3 -
18.07.2019 22:00:00 23,6 19,1 4 2 NNE 1012,8 -
18.07.2019 21:00:00 24,8 18,7 2 1 SE 1012,5 -
18.07.2019 20:00:00 25,5 18,1 5 3 SO 1012,2 -
18.07.2019 19:00:00 26,0 17,8 5 3 SSO 1011,5 -
18.07.2019 18:00:00 25,7 18,6 9 5 SO 1011,8 -
18.07.2019 17:00:00 26,2 18,3 11 6 S 1011,8 -
18.07.2019 16:00:00 26,3 17,6 11 6 SSO 1012,1 -
18.07.2019 15:00:00 26,6 17,6 11 6 SSO 1012,1 -
18.07.2019 14:00:00 26,3 17,3 11 6 S 1012,3 -
18.07.2019 13:00:00 25,4 17,0 11 6 S 1012,3 -
18.07.2019 12:00:00 25,3 17,2 9 5 N 1012,3 -
18.07.2019 11:00:00 24,7 16,3 5 3 ENE 1012,1 -
18.07.2019 10:00:00 21,6 14,2 9 5 ENE 1012,1 -
18.07.2019 09:00:00 19,5 14,2 11 6 NE 1011,8 -
18.07.2019 08:00:00 18,3 13,3 11 6 ENE 1011,6 -
18.07.2019 07:00:00 17,3 13,1 11 6 ENE 1011,2 -
18.07.2019 06:00:00 17,1 13,5 15 8 N 1011,2 -
18.07.2019 05:00:00 16,9 13,3 15 8 NE 1010,9 -
18.07.2019 04:00:00 17,2 13,0 13 7 E 1010,9 -
18.07.2019 03:00:00 17,3 13,1 15 8 ENE 1011,4 -
18.07.2019 02:00:00 17,8 13,2 15 8 NE 1011,8 -
18.07.2019 01:00:00 18,5 14,1 13 7 NE 1012,2 -
18.07.2019 00:00:00 19,6 13,9 11 6 NE 1012,1 -
17.07.2019 23:00:00 20,9 13,7 15 8 NNE 1011,9 -
17.07.2019 22:00:00 22,4 13,6 8 4 NNE 1011,7 -
17.07.2019 21:00:00 25,1 14,8 0 0 N 1011,4 -
17.07.2019 20:00:00 25,2 13,0 5 3 SO 1011,4 -
17.07.2019 19:00:00 26,6 12,6 8 4 SO 1011,3 -
17.07.2019 18:00:00 26,7 8,6 8 4 SSO 1011,9 -
17.07.2019 17:00:00 25,8 13,2 9 5 S 1012,3 -
17.07.2019 16:00:00 - - - - - - -
17.07.2019 15:00:00 26,3 17,0 9 5 SO 1012,7 -
17.07.2019 14:00:00 26,4 18,2 9 5 OSO 1013,2 -
17.07.2019 13:00:00 25,5 19,3 9 5 SO 1013,5 -
17.07.2019 12:00:00 24,8 19,1 9 5 SSO 1013,6 -
17.07.2019 11:00:00 25,2 19,5 11 6 SSO 1013,5 -
17.07.2019 10:00:00 23,2 12,2 4 2 E 1013,5 -
17.07.2019 09:00:00 20,1 13,2 11 6 ENE 1013,7 -
17.07.2019 08:00:00 17,7 13,1 9 5 NE 1013,8 -
17.07.2019 07:00:00 16,6 12,9 13 7 E 1013,4 -
17.07.2019 06:00:00 16,9 13,2 13 7 NE 1013,4 -

tt = Temperatura
td = dewpoint
ff = velocità del vento
dd = direzione del vento
ppp = reduced air pressure
rr = precipitazioni

Stazioni seguenti

WeatherPro
AMSI
MeteoEarth